Location: Deurze
(52.9838°N, 6.6090°E)
Time: 18:21:33
(UTC+00:00)

Cosmos 841 Rocket - Pass Details

Date: 11 March 2026
Orbit: 742 x 767 km, 74.0° (Epoch: 20 April)

Event Time Altitude Azimuth Distance (km) Brightness Sun altitude
Rises 21:02:52 0° 330° (NNW) 3,200 7.7 -30.5°
Reaches altitude 10° 21:05:17 10° 325° (NW) 2,275 6.8 -30.8°
Enters shadow 21:09:31 44° 276° (W) 1,042 4.4 -31.2°
